< < Back
Terminal Aerodrome Forecast


Current Version              Previous Versions:   1  2  3  4  5  6  7  8  9  

Terminal Aerodrome Forecast

659
FTAK31 PAJN 270520
TAFAHN
TAF
PAHN 270520Z 2706/2806 09006KT P6SM VCSH OVC015
     FM271800 09010KT 6SM -RA BR OVC020
     FM280000 08012G18KT 4SM -RA BR OVC015
      AMD LTD TO CLD VIS AND WIND=

Latest METAR

759
SAUS70 KWBC 271300 RRA
MTRAHN
METAR KAHN 271251Z 27003KT 10SM CLR 27/23 A3008 RMK AO2 SLP178
T02720233


USA.gov is the U.S. government's official web portal to all federal, state and local government web resources and services.